• In Hungary
  • List of Countries
  • For 7 days
  • Water Temperature
  • Satellite Maps
  • Weather Map
  • News
  • Weather Widgets
  • user-avatar
    Login

    Hourly Weather Wolek

    Today, 26 September, Wednesday

    Time Temperature Precipitation Wind Pressure Humidity
    00:00 +5°C° 0 mm 1 mps 748 mmHg 81%
    01:00 +4°C° 0 mm 1 mps 748 mmHg 83%
    02:00 +4°C° 0 mm 1 mps 748 mmHg 83%
    03:00 +4°C° 0 mm 1 mps 748 mmHg 84%
    04:00 +4°C° 0 mm 1 mps 748 mmHg 84%
    05:00 +4°C° 0 mm 2 mps 748 mmHg 81%
    06:00 +4°C° 0 mm 2 mps 748 mmHg 78%
    07:00 +5°C° 0 mm 2 mps 748 mmHg 73%
    08:00 +7°C° 0 mm 2 mps 748 mmHg 64%
    09:00 +9°C° 0 mm 2 mps 748 mmHg 54%
    10:00 +11°C° 0 mm 3 mps 748 mmHg 45%
    11:00 +12°C° 0 mm 3 mps 747 mmHg 43%
    12:00 +13°C° 0 mm 3 mps 747 mmHg 40%
    13:00 +14°C° 0 mm 4 mps 746 mmHg 38%
    14:00 +14°C° 0 mm 4 mps 746 mmHg 40%
    15:00 +13°C° 0 mm 4 mps 745 mmHg 43%
    16:00 +13°C° 0 mm 4 mps 744 mmHg 45%
    17:00 +12°C° 0 mm 4 mps 744 mmHg 48%
    18:00 +11°C° 0 mm 4 mps 744 mmHg 51%
    19:00 +10°C° 0 mm 3 mps 744 mmHg 53%
    20:00 +9°C° 0 mm 3 mps 744 mmHg 54%
    21:00 +8°C° 0 mm 4 mps 744 mmHg 55%
    22:00 +7°C° 0 mm 4 mps 743 mmHg 56%
    23:00 +7°C° 0 mm 4 mps 743 mmHg 56%

    Tomorrow, 27 September, Thursday

    Time Temperature Precipitation Wind Pressure Humidity
    00:00 +8°C° 0 mm 3 mps 743 mmHg 55%
    01:00 +8°C° 0 mm 3 mps 743 mmHg 55%
    02:00 +8°C° 0 mm 3 mps 743 mmHg 55%
    03:00 +8°C° 0 mm 3 mps 742 mmHg 54%
    04:00 +9°C° 0 mm 3 mps 742 mmHg 54%
    05:00 +9°C° 0 mm 3 mps 742 mmHg 55%
    06:00 +9°C° 0 mm 3 mps 742 mmHg 56%
    07:00 +10°C° 0 mm 3 mps 742 mmHg 57%
    08:00 +11°C° 0 mm 3 mps 742 mmHg 56%
    09:00 +12°C° 0 mm 3 mps 742 mmHg 56%
    10:00 +13°C° 0 mm 3 mps 742 mmHg 56%
    11:00 +14°C° 0 mm 3 mps 742 mmHg 56%
    12:00 +17°C° 0 mm 3 mps 742 mmHg 57%
    13:00 +18°C° 0 mm 3 mps 742 mmHg 58%
    14:00 +18°C° 0 mm 3 mps 741 mmHg 60%
    15:00 +18°C° 0 mm 2 mps 741 mmHg 63%
    16:00 +18°C° 0 mm 2 mps 740 mmHg 65%
    17:00 +17°C° 0 mm 2 mps 740 mmHg 71%
    18:00 +15°C° 0 mm 2 mps 740 mmHg 77%
    19:00 +14°C° 0 mm 2 mps 740 mmHg 83%
    20:00 +13°C° 0 mm 2 mps 739 mmHg 84%
    21:00 +13°C° 0 mm 2 mps 739 mmHg 85%
    22:00 +13°C° 0 mm 2 mps 739 mmHg 86%
    23:00 +13°C° 0 mm 2 mps 738 mmHg 86%

    Day after tomorrow, 28 September, Friday

    Time Temperature Precipitation Wind Pressure Humidity
    00:00 +12°C° 0 mm 2 mps 738 mmHg 86%
    01:00 +12°C° 0 mm 2 mps 737 mmHg 87%
    02:00 +12°C° 0 mm 2 mps 737 mmHg 86%
    03:00 +11°C° 0 mm 3 mps 736 mmHg 86%
    04:00 +11°C° 0 mm 3 mps 736 mmHg 85%
    05:00 +12°C° 0 mm 3 mps 736 mmHg 82%
    06:00 +12°C° 0 mm 3 mps 735 mmHg 79%
    07:00 +13°C° 0 mm 3 mps 735 mmHg 76%
    08:00 +16°C° 0 mm 3 mps 735 mmHg 67%
    09:00 +18°C° 0 mm 4 mps 735 mmHg 58%
    10:00 +20°C° 0 mm 4 mps 735 mmHg 49%
    11:00 +20°C° 0 mm 4 mps 735 mmHg 47%
    12:00 +21°C° 0 mm 4 mps 734 mmHg 45%
    13:00 +21°C° 0 mm 4 mps 734 mmHg 44%
    14:00 +21°C° 0 mm 4 mps 734 mmHg 47%
    15:00 +20°C° 0 mm 3 mps 734 mmHg 50%
    16:00 +19°C° 0 mm 3 mps 733 mmHg 53%
    17:00 +17°C° 0 mm 3 mps 734 mmHg 61%
    18:00 +14°C° 0 mm 3 mps 734 mmHg 69%
    19:00 +14°C° 0 mm 2 mps 734 mmHg 77%
    20:00 +13°C° 0 mm 2 mps 735 mmHg 78%
    21:00 +13°C° 0 mm 2 mps 735 mmHg 78%
    22:00 +13°C° 0 mm 2 mps 735 mmHg 78%
    23:00 +12°C° 0 mm 2 mps 735 mmHg 77%

    29 September, Saturday

    Time Temperature Precipitation Wind Pressure Humidity
    00:00 +12°C° 0 mm 2 mps 736 mmHg 76%
    01:00 +12°C° 0 mm 2 mps 736 mmHg 75%
    02:00 +10°C° 0.1 mm 2 mps 736 mmHg 76%
    03:00 +10°C° 0.1 mm 2 mps 736 mmHg 77%
    04:00 +9°C° 0.1 mm 2 mps 736 mmHg 78%
    05:00 +9°C° 0.1 mm 2 mps 737 mmHg 80%
    06:00 +8°C° 0.1 mm 2 mps 737 mmHg 81%
    07:00 +8°C° 0.1 mm 3 mps 738 mmHg 83%
    08:00 +9°C° 0.1 mm 3 mps 738 mmHg 77%
    09:00 +10°C° 0.1 mm 4 mps 738 mmHg 71%
    10:00 +11°C° 0.1 mm 4 mps 739 mmHg 65%
    11:00 +12°C° 0.1 mm 4 mps 739 mmHg 59%
    12:00 +12°C° 0.1 mm 4 mps 739 mmHg 54%
    13:00 +12°C° 0.1 mm 4 mps 739 mmHg 48%
    14:00 +12°C° 0 mm 4 mps 739 mmHg 47%
    15:00 +12°C° 0 mm 4 mps 739 mmHg 45%
    16:00 +12°C° 0 mm 4 mps 740 mmHg 43%
    17:00 +10°C° 0 mm 3 mps 740 mmHg 47%
    18:00 +9°C° 0 mm 3 mps 740 mmHg 51%
    19:00 +8°C° 0 mm 2 mps 741 mmHg 55%
    20:00 +7°C° 0 mm 2 mps 741 mmHg 57%
    21:00 +6°C° 0 mm 2 mps 741 mmHg 59%
    22:00 +7°C° 0 mm 1 mps 741 mmHg 61%
    23:00 +6°C° 0 mm 1 mps 741 mmHg 62%

    30 September, Sunday

    Time Temperature Precipitation Wind Pressure Humidity
    00:00 +6°C° 0 mm 1 mps 741 mmHg 64%
    01:00 +6°C° 0 mm 1 mps 741 mmHg 65%
    02:00 +5°C° 0 mm 1 mps 741 mmHg 66%
    03:00 +5°C° 0 mm 1 mps 741 mmHg 67%
    04:00 +5°C° 0 mm 1 mps 741 mmHg 68%
    05:00 +5°C° 0 mm 1 mps 740 mmHg 67%
    06:00 +6°C° 0 mm 1 mps 740 mmHg 65%
    07:00 +6°C° 0 mm 1 mps 740 mmHg 64%
    08:00 +7°C° 0 mm 2 mps 740 mmHg 57%
    09:00 +10°C° 0 mm 2 mps 740 mmHg 50%
    10:00 +12°C° 0 mm 3 mps 740 mmHg 42%
    11:00 +13°C° 0 mm 3 mps 739 mmHg 39%
    12:00 +15°C° 0 mm 2 mps 739 mmHg 36%
    13:00 +16°C° 0 mm 2 mps 738 mmHg 33%
    14:00 +15°C° 0 mm 2 mps 738 mmHg 36%
    15:00 +15°C° 0 mm 2 mps 737 mmHg 38%
    16:00 +15°C° 0 mm 2 mps 737 mmHg 41%
    17:00 +13°C° 0 mm 2 mps 737 mmHg 47%
    18:00 +10°C° 0 mm 2 mps 737 mmHg 52%
    19:00 +8°C° 0 mm 2 mps 736 mmHg 58%
    20:00 +7°C° 0 mm 2 mps 736 mmHg 60%
    21:00 +7°C° 0 mm 2 mps 736 mmHg 63%
    22:00 +7°C° 0 mm 2 mps 735 mmHg 65%
    23:00 +6°C° 0 mm 2 mps 735 mmHg 66%

    1 October, Monday

    Time Temperature Precipitation Wind Pressure Humidity
    00:00 +7°C° 0 mm 1 mps 734 mmHg 68%
    01:00 +7°C° 0 mm 1 mps 734 mmHg 69%
    02:00 +7°C° 0 mm 1 mps 734 mmHg 71%
    03:00 +7°C° 0 mm 1 mps 733 mmHg 73%
    04:00 +6°C° 0 mm 2 mps 733 mmHg 75%
    05:00 +7°C° 0 mm 2 mps 732 mmHg 75%
    06:00 +8°C° 0 mm 2 mps 732 mmHg 75%
    07:00 +8°C° 0 mm 2 mps 732 mmHg 74%
    08:00 +12°C° 0 mm 2 mps 732 mmHg 67%
    09:00 +13°C° 0 mm 3 mps 732 mmHg 60%
    10:00 +17°C° 0 mm 4 mps 731 mmHg 53%
    11:00 +18°C° 0 mm 4 mps 731 mmHg 51%
    12:00 +18°C° 0 mm 4 mps 731 mmHg 49%
    13:00 +19°C° 0 mm 4 mps 730 mmHg 47%
    14:00 +19°C° 0 mm 4 mps 730 mmHg 50%
    15:00 +18°C° 0 mm 4 mps 730 mmHg 52%
    16:00 +18°C° 0 mm 3 mps 729 mmHg 55%
    17:00 +16°C° 0 mm 3 mps 730 mmHg 61%
    18:00 +14°C° 0 mm 2 mps 730 mmHg 68%
    19:00 +13°C° 0 mm 2 mps 730 mmHg 74%
    20:00 +12°C° 0 mm 2 mps 730 mmHg 74%
    21:00 +12°C° 0 mm 2 mps 730 mmHg 74%
    22:00 +11°C° 0 mm 1 mps 731 mmHg 75%
    23:00 +11°C° 0 mm 1 mps 731 mmHg 74%
    Show more